Time,TemperatureF,DewpointF,PressureIn,WindDirection,WindDirectionDegrees,WindSpeedMPH,WindSpeedGustMPH,Humidity,HourlyPrecipIn,Conditions,Clouds,dailyrainin,SoftwareType,DateUTC
2013-02-19 00:23:00,39.0,25.0,30.10,South,180,8.0,-999.0,55,-99.99,,,-99.99,,2013-02-19 05:23:00,
2013-02-19 00:32:00,39.0,25.0,30.10,South,180,8.0,-999.0,55,-99.99,,,-99.99,,2013-02-19 05:32:00,
2013-02-19 00:43:00,39.0,25.0,30.10,South,180,8.0,-999.0,55,-99.99,,,-99.99,,2013-02-19 05:43:00,
2013-02-19 00:52:00,39.0,25.0,30.10,South,180,8.0,-999.0,55,-99.99,,,-99.99,,2013-02-19 05:52:00,
2013-02-19 01:42:00,39.0,25.0,30.07,SSE,150,6.0,-999.0,55,-99.99,,,-99.99,,2013-02-19 06:42:00,
2013-02-19 01:52:00,39.0,25.0,30.07,SSE,150,6.0,-999.0,55,-99.99,,,-99.99,,2013-02-19 06:52:00,
2013-02-19 02:22:00,39.0,21.0,30.03,ESE,120,6.0,-999.0,48,-99.99,,,-99.99,,2013-02-19 07:22:00,
2013-02-19 02:32:00,39.0,21.0,30.03,ESE,120,6.0,-999.0,48,-99.99,,,-99.99,,2013-02-19 07:32:00,
2013-02-19 02:42:00,39.0,21.0,30.03,ESE,120,6.0,-999.0,48,-99.99,,,-99.99,,2013-02-19 07:42:00,
2013-02-19 02:52:00,39.0,21.0,30.03,ESE,120,6.0,-999.0,48,-99.99,,,-99.99,,2013-02-19 07:52:00,
2013-02-19 03:22:00,41.0,27.0,30.02,SSE,160,10.0,20.0,56,-99.99,,,-99.99,,2013-02-19 08:22:00,
2013-02-19 03:32:00,41.0,27.0,30.02,SSE,160,10.0,20.0,56,-99.99,,,-99.99,,2013-02-19 08:32:00,
2013-02-19 03:42:00,41.0,27.0,30.02,SSE,160,10.0,20.0,56,-99.99,,,-99.99,,2013-02-19 08:42:00,
2013-02-19 03:52:00,41.0,27.0,30.02,SSE,160,10.0,20.0,56,-99.99,,,-99.99,,2013-02-19 08:52:00,
2013-02-19 04:11:00,37.0,30.0,30.03,North,0,0.0,-999.0,74,-99.99,,,-99.99,,2013-02-19 09:11:00,
2013-02-19 04:22:00,37.0,30.0,30.03,North,0,0.0,-999.0,74,-99.99,,,-99.99,,2013-02-19 09:22:00,
2013-02-19 04:32:00,37.0,30.0,30.03,North,0,0.0,-999.0,74,-99.99,,,-99.99,,2013-02-19 09:32:00,
2013-02-19 04:42:00,37.0,30.0,30.03,North,0,0.0,-999.0,74,-99.99,,,-99.99,,2013-02-19 09:42:00,
2013-02-19 04:52:00,37.0,30.0,30.03,North,0,0.0,-999.0,74,-99.99,,,-99.99,,2013-02-19 09:52:00,
2013-02-19 06:11:00,32.0,30.0,30.02,North,0,0.0,-999.0,92,-99.99,,,-99.99,,2013-02-19 11:11:00,
2013-02-19 06:22:00,32.0,30.0,30.02,North,0,0.0,-999.0,92,-99.99,,,-99.99,,2013-02-19 11:22:00,
2013-02-19 06:32:00,32.0,30.0,30.02,North,0,0.0,-999.0,92,-99.99,,,-99.99,,2013-02-19 11:32:00,
2013-02-19 06:42:00,32.0,30.0,30.02,North,0,0.0,-999.0,92,-99.99,,,-99.99,,2013-02-19 11:42:00,
2013-02-19 06:52:00,32.0,30.0,30.02,North,0,0.0,-999.0,92,-99.99,,,-99.99,,2013-02-19 11:52:00,
2013-02-19 07:12:00,32.0,32.0,29.98,North,0,0.0,-999.0,100,-99.99,,,-99.99,,2013-02-19 12:12:00,
2013-02-19 07:22:00,32.0,32.0,29.98,North,0,0.0,-999.0,100,-99.99,,,-99.99,,2013-02-19 12:22:00,
2013-02-19 07:32:00,32.0,32.0,29.98,North,0,0.0,-999.0,100,-99.99,,,-99.99,,2013-02-19 12:32:00,
2013-02-19 07:42:00,32.0,32.0,29.98,North,0,0.0,-999.0,100,-99.99,,,-99.99,,2013-02-19 12:42:00,
2013-02-19 07:52:00,32.0,32.0,29.98,North,0,0.0,-999.0,100,-99.99,,,-99.99,,2013-02-19 12:52:00,
2013-02-19 08:11:00,34.0,34.0,29.96,North,0,0.0,-999.0,100,-99.99,,,-99.99,,2013-02-19 13:11:00,
2013-02-19 08:22:00,34.0,34.0,29.96,North,0,0.0,-999.0,100,-99.99,,,-99.99,,2013-02-19 13:22:00,
2013-02-19 08:32:00,34.0,34.0,29.96,North,0,0.0,-999.0,100,-99.99,,,-99.99,,2013-02-19 13:32:00,
2013-02-19 08:42:00,34.0,34.0,29.96,North,0,0.0,-999.0,100,-99.99,,,-99.99,,2013-02-19 13:42:00,
2013-02-19 08:52:00,34.0,34.0,29.96,North,0,0.0,-999.0,100,-99.99,,,-99.99,,2013-02-19 13:52:00,
2013-02-19 09:12:00,34.0,34.0,29.95,North,0,0.0,-999.0,100,-99.99,,,-99.99,,2013-02-19 14:12:00,
2013-02-19 09:22:00,34.0,34.0,29.95,North,0,0.0,-999.0,100,-99.99,,,-99.99,,2013-02-19 14:22:00,
2013-02-19 09:33:00,34.0,34.0,29.95,North,0,0.0,-999.0,100,-99.99,,,-99.99,,2013-02-19 14:33:00,
2013-02-19 09:42:00,34.0,34.0,29.95,North,0,0.0,-999.0,100,-99.99,,,-99.99,,2013-02-19 14:42:00,
2013-02-19 09:52:00,34.0,34.0,29.95,North,0,0.0,-999.0,100,-99.99,,,-99.99,,2013-02-19 14:52:00,
2013-02-19 10:11:00,34.0,34.0,29.95,North,0,0.0,-999.0,100,-99.99,,,-99.99,,2013-02-19 15:11:00,
2013-02-19 10:22:00,34.0,34.0,29.95,North,0,0.0,-999.0,100,-99.99,,,-99.99,,2013-02-19 15:22:00,
2013-02-19 10:32:00,34.0,34.0,29.95,North,0,0.0,-999.0,100,-99.99,,,-99.99,,2013-02-19 15:32:00,
2013-02-19 10:42:00,34.0,34.0,29.95,North,0,0.0,-999.0,100,-99.99,,,-99.99,,2013-02-19 15:42:00,
2013-02-19 10:52:00,34.0,34.0,29.95,North,0,0.0,-999.0,100,-99.99,,,-99.99,,2013-02-19 15:52:00,
2013-02-19 11:11:00,34.0,34.0,29.96,North,0,0.0,-999.0,100,-99.99,,,-99.99,,2013-02-19 16:11:00,
2013-02-19 11:22:00,34.0,34.0,29.96,North,0,0.0,-999.0,100,-99.99,,,-99.99,,2013-02-19 16:22:00,
2013-02-19 11:32:00,34.0,34.0,29.96,North,0,0.0,-999.0,100,-99.99,,,-99.99,,2013-02-19 16:32:00,
2013-02-19 11:42:00,34.0,34.0,29.96,North,0,0.0,-999.0,100,-99.99,,,-99.99,,2013-02-19 16:42:00,
2013-02-19 11:52:00,34.0,34.0,29.96,North,0,0.0,-999.0,100,-99.99,,,-99.99,,2013-02-19 16:52:00,
2013-02-19 12:11:00,37.0,37.0,29.95,North,0,0.0,-999.0,100,-99.99,,,-99.99,,2013-02-19 17:11:00,
2013-02-19 12:21:00,37.0,37.0,29.95,North,0,0.0,-999.0,100,-99.99,,,-99.99,,2013-02-19 17:21:00,
2013-02-19 12:32:00,37.0,37.0,29.95,North,0,0.0,-999.0,100,-99.99,,,-99.99,,2013-02-19 17:32:00,
2013-02-19 12:42:00,37.0,37.0,29.95,North,0,0.0,-999.0,100,-99.99,,,-99.99,,2013-02-19 17:42:00,
2013-02-19 12:52:00,37.0,37.0,29.95,North,0,0.0,-999.0,100,-99.99,,,-99.99,,2013-02-19 17:52:00,
2013-02-19 13:21:00,39.0,39.0,29.94,North,0,0.0,-999.0,100,-99.99,,,-99.99,,2013-02-19 18:21:00,
2013-02-19 13:32:00,39.0,39.0,29.94,North,0,0.0,-999.0,100,-99.99,,,-99.99,,2013-02-19 18:32:00,
2013-02-19 13:42:00,39.0,39.0,29.94,North,0,0.0,-999.0,100,-99.99,,,-99.99,,2013-02-19 18:42:00,
2013-02-19 13:52:00,39.0,39.0,29.94,North,0,0.0,-999.0,100,-99.99,,,-99.99,,2013-02-19 18:52:00,
2013-02-19 14:32:00,43.0,43.0,29.91,North,0,0.0,-999.0,100,-99.99,,,-99.99,,2013-02-19 19:32:00,
2013-02-19 14:42:00,43.0,43.0,29.91,North,0,0.0,-999.0,100,-99.99,,,-99.99,,2013-02-19 19:42:00,
2013-02-19 14:52:00,43.0,43.0,29.91,North,0,0.0,-999.0,100,-99.99,,,-99.99,,2013-02-19 19:52:00,
2013-02-19 16:11:00,45.0,30.0,29.92,NW,310,14.0,21.0,56,-99.99,,,-99.99,,2013-02-19 21:11:00,
2013-02-19 16:21:00,45.0,30.0,29.92,NW,310,14.0,21.0,56,-99.99,,,-99.99,,2013-02-19 21:21:00,
2013-02-19 16:32:00,45.0,30.0,29.92,NW,310,14.0,21.0,56,-99.99,,,-99.99,,2013-02-19 21:32:00,
2013-02-19 16:42:00,45.0,30.0,29.92,NW,310,14.0,21.0,56,-99.99,,,-99.99,,2013-02-19 21:42:00,
2013-02-19 16:51:00,45.0,30.0,29.92,NW,310,14.0,21.0,56,-99.99,,,-99.99,,2013-02-19 21:51:00,
2013-02-19 17:11:00,45.0,27.0,29.94,NW,310,13.0,22.0,48,-99.99,,,-99.99,,2013-02-19 22:11:00,
2013-02-19 17:22:00,45.0,27.0,29.94,NW,310,13.0,22.0,48,-99.99,,,-99.99,,2013-02-19 22:22:00,
2013-02-19 17:32:00,45.0,27.0,29.94,NW,310,13.0,22.0,48,-99.99,,,-99.99,,2013-02-19 22:32:00,
2013-02-19 17:42:00,45.0,27.0,29.94,NW,310,13.0,22.0,48,-99.99,,,-99.99,,2013-02-19 22:42:00,
2013-02-19 17:52:00,45.0,27.0,29.94,NW,310,13.0,22.0,48,-99.99,,,-99.99,,2013-02-19 22:52:00,
2013-02-19 18:11:00,43.0,21.0,29.96,NW,320,8.0,-999.0,41,-99.99,,,-99.99,,2013-02-19 23:11:00,
2013-02-19 18:21:00,43.0,21.0,29.96,NW,320,8.0,-999.0,41,-99.99,,,-99.99,,2013-02-19 23:21:00,
2013-02-19 18:32:00,43.0,21.0,29.96,NW,320,8.0,-999.0,41,-99.99,,,-99.99,,2013-02-19 23:32:00,
2013-02-19 18:42:00,43.0,21.0,29.96,NW,320,8.0,-999.0,41,-99.99,,,-99.99,,2013-02-19 23:42:00,
2013-02-19 18:52:00,43.0,21.0,29.96,NW,320,8.0,-999.0,41,-99.99,,,-99.99,,2013-02-19 23:52:00,
2013-02-19 19:22:00,39.0,19.0,29.98,NW,310,5.0,-999.0,44,-99.99,,,-99.99,,2013-02-20 00:22:00,
2013-02-19 19:32:00,39.0,19.0,29.98,NW,310,5.0,-999.0,44,-99.99,,,-99.99,,2013-02-20 00:32:00,
2013-02-19 19:42:00,39.0,19.0,29.98,NW,310,5.0,-999.0,44,-99.99,,,-99.99,,2013-02-20 00:42:00,
2013-02-19 19:52:00,39.0,19.0,29.98,NW,310,5.0,-999.0,44,-99.99,,,-99.99,,2013-02-20 00:52:00,
2013-02-19 20:22:00,37.0,18.0,29.99,NNW,330,13.0,22.0,44,-99.99,,,-99.99,,2013-02-20 01:22:00,
2013-02-19 20:32:00,37.0,18.0,29.99,NNW,330,13.0,22.0,44,-99.99,,,-99.99,,2013-02-20 01:32:00,
2013-02-19 20:42:00,37.0,18.0,29.99,NNW,330,13.0,22.0,44,-99.99,,,-99.99,,2013-02-20 01:42:00,
2013-02-19 20:52:00,37.0,18.0,29.99,NNW,330,13.0,22.0,44,-99.99,,,-99.99,,2013-02-20 01:52:00,
2013-02-19 21:32:00,36.0,14.0,30.00,WNW,290,8.0,-999.0,40,-99.99,,,-99.99,,2013-02-20 02:32:00,
2013-02-19 21:42:00,36.0,14.0,30.00,WNW,290,8.0,-999.0,40,-99.99,,,-99.99,,2013-02-20 02:42:00,
2013-02-19 21:52:00,36.0,14.0,30.00,WNW,290,8.0,-999.0,40,-99.99,,,-99.99,,2013-02-20 02:52:00,
2013-02-19 22:22:00,36.0,14.0,30.00,North,0,0.0,-999.0,40,-99.99,,,-99.99,,2013-02-20 03:22:00,
2013-02-19 22:32:00,36.0,14.0,30.00,North,0,0.0,-999.0,40,-99.99,,,-99.99,,2013-02-20 03:32:00,
2013-02-19 22:42:00,36.0,14.0,30.00,North,0,0.0,-999.0,40,-99.99,,,-99.99,,2013-02-20 03:42:00,
2013-02-19 22:52:00,36.0,14.0,30.00,North,0,0.0,-999.0,40,-99.99,,,-99.99,,2013-02-20 03:52:00,
2013-02-19 23:22:00,34.0,16.0,30.01,NW,320,10.0,16.0,47,-99.99,,,-99.99,,2013-02-20 04:22:00,
2013-02-19 23:32:00,34.0,16.0,30.01,NW,320,10.0,16.0,47,-99.99,,,-99.99,,2013-02-20 04:32:00,
2013-02-19 23:42:00,34.0,16.0,30.01,NW,320,10.0,16.0,47,-99.99,,,-99.99,,2013-02-20 04:42:00,
2013-02-19 23:52:00,34.0,16.0,30.01,NW,320,10.0,16.0,47,-99.99,,,-99.99,,2013-02-20 04:52:00,